User: anonymous   Login
Location: Acheville
(50.3840°N, 2.8827°E)
Time: 09:38:22
(UTC+00:00)
Language:

CSL-04 DEB - Orbit

View from above orbital plane
View from above orbital plane
View from above satellite
View from above satellite

Ground track
Ground track

The orbit data is extracted from the following two-line orbital elements,

1 26121U 99057H   22228.24972372  .00002061  00000-0  18875-3 0  9995
2 26121  98.7057 118.6473 0057609 168.3747 191.8816 14.95047795215501
Epoch (UTC): 16 August 2022 05:59:36
Eccentricity: 0.0057609
inclination: 98.7057°
perigee height: 542 km
apogee height: 622 km
right ascension of ascending node: 118.6473°
argument of perigee: 168.3747°
revolutions per day: 14.95047795
mean anomaly at epoch: 191.8816°
orbit number at epoch: 21550

The dashed part of the orbit path shows where the satellite is in the earth's shadow,  

DLR